Flag for U.S.A. Weather past 2 weeks in Avalon (Santa Catalina Island), California, U.S.A.

Now
66 °F

Clear.


Feels Like: 66 °F
Forecast: 65 / 78 °F
Wind: 3 mph from Southeast

Location: Catalina Airport

Current Time: Jul 30, 2015 at 7:35:18 AM

Latest Report: Jul 30, 2015 at 6:51 AM


Visibility: 10 mi

Pressure: 29.98 "Hg

Humidity: 84%

Dew point: 61 °F

Location of Avalon (Santa Catalina Island)Location

Historic Weather in Avalon (Santa Catalina Island) — Graph

°F

Avalon (Santa Catalina Island) temperature yesterday

Maximum temperature yesterday: 71 °F (at 11:51 AM)
Minimum temperature yesterday: 60 °F (at 3:51 AM)
Average temperature yesterday: 65 °F

Past Weeks' High & Low Weather Summary

 TemperatureHumidityPressure
High81 °F (Jul 19, 9:51 AM)100% (Jul 15, 10:51 PM)30.09 "Hg (Jul 15, 10:51 PM)
Low55 °F (Jul 17, 5:51 AM)23% (Jul 24, 11:51 PM)29.81 "Hg (Jul 17, 4:51 PM)
Average66 °F80%29.94 "Hg
* Reported Jul 15 5:51 AM — Jul 30 5:51 AM, Avalon (Santa Catalina Island), Weather by CustomWeather, © 2015

Note: Actual official high and low records may vary slightly from our data, if they occured in-between our weather recording intervals... More about our weather records

Advertising

Avalon (Santa Catalina Island) weather history for previous 24 hours

 ConditionsComfort  
Time TempWeatherWind HumidityBarometerVisibility
5:51 AM
Thu, Jul 30
65 °FClear.3 mph87%29.96 "Hg10 mi
4:51 AM64 °FClear.5 mph94%29.95 "Hg8 mi
3:51 AM64 °FClear.No wind94%29.95 "Hg9 mi
2:51 AM62 °FClear.5 mph96%29.96 "Hg8 mi
1:51 AM61 °FFog.No wind97%29.96 "Hg5 mi
12:51 AM62 °FClear.3 mph93%29.98 "Hg10 mi
11:58 PM
Wed, Jul 29
61 °FFog.No wind97%30.02 "Hg2 mi
10:51 PM61 °FFog.3 mph97%29.97 "Hg1 mi
9:51 PM63 °FLow clouds.No wind93%29.98 "Hg7 mi
8:51 PM66 °FSunny.No wind81%29.95 "Hg10 mi
7:51 PM65 °FSunny.3 mph85%29.94 "Hg10 mi
6:51 PM65 °FSunny.8 mph87%29.94 "Hg10 mi
5:51 PM69 °FSunny.8 mph73%29.92 "Hg10 mi
4:51 PM71 °FSunny.5 mph66%29.91 "Hg10 mi
3:51 PM71 °FSunny.8 mph66%29.92 "Hg10 mi
2:51 PM68 °FSunny.13 mph73%29.94 "Hg10 mi
1:51 PM68 °FSunny.12 mph73%29.95 "Hg10 mi
12:51 PM69 °FSunny.8 mph73%29.95 "Hg10 mi
11:51 AM71 °FSunny.5 mph71%29.96 "Hg10 mi
10:51 AM68 °FSunny.7 mph73%29.94 "Hg10 mi
9:51 AM67 °FPartly sunny.5 mph81%29.94 "Hg9 mi
9:04 AM62 °FFog.3 mph96%29.99 "Hg1 mi
8:51 AM62 °FFog.3 mph96%29.93 "Hg0 mi
7:51 AM61 °FFog.3 mph100%29.94 "Hg0 mi
Weather by CustomWeather, © 2015

See weather overviewHow to use our weather pages